Flag for U.S.A. Weather past 2 weeks in Sevierville, Tennessee, U.S.A.

Now
74 °F

Broken clouds.


Feels Like: 77 °F
Forecast: 61 / 78 °F
Wind: 7 mph from Northwest

Location: McGhee Tyson Airport

Current Time: Jul 28, 2014 at 9:27:31 PM

Latest Report: Jul 28, 2014 at 8:53 PM


Visibility: 10 mi

Pressure: 29.93 "Hg

Humidity: 60%

Dew point: 59 °F

Location of SeviervilleLocation

Historic Weather in Sevierville — Graph

°F

Sevierville temperature yesterday

Maximum temperature yesterday: 90 °F (at 4:53 PM)
Minimum temperature yesterday: 72 °F (at 4:53 AM)
Average temperature yesterday: 79 °F

Past Weeks' High & Low Weather Summary

 TemperatureHumidityPressure
High92 °F (Jul 14, 4:53 PM)100% (Jul 18, 11:59 PM)30.16 "Hg (Jul 18, 11:59 PM)
Low57 °F (Jul 17, 4:53 AM)36% (Jul 16, 6:53 PM)29.79 "Hg (Jul 27, 5:53 PM)
Average74 °F77%29.99 "Hg
* Reported Jul 13 7:53 PM — Jul 28 7:53 PM, Sevierville, Weather by CustomWeather, © 2014

Note: Actual official high and low records may vary slightly from our data, if they occured in-between our weather recording intervals... More about our weather records

Advertising

Sevierville weather history for previous 24 hours

 ConditionsComfort  
Time TempWeatherWind HumidityBarometerVisibility
7:53 PM
Jul 28
76 °FBroken clouds.5 mph60%29.92 "Hg10 mi
6:53 PM77 °FPartly sunny.7 mph58%29.91 "Hg10 mi
5:53 PM79 °FPartly sunny.8 mph52%29.91 "Hg10 mi
4:53 PM79 °FBroken clouds.3 mph52%29.92 "Hg10 mi
3:53 PM81 °FPartly sunny.9 mph49%29.91 "Hg10 mi
2:53 PM79 °FScattered clouds.13 mph50%29.92 "Hg10 mi
1:53 PM79 °FPartly sunny.13 mph50%29.93 "Hg10 mi
12:53 PM79 °FScattered clouds.14 mph54%29.94 "Hg10 mi
11:53 AM77 °FScattered clouds.8 mph58%29.94 "Hg10 mi
10:53 AM75 °FPassing clouds.10 mph64%29.94 "Hg10 mi
9:53 AM74 °FPassing clouds.10 mph74%29.93 "Hg10 mi
8:53 AM73 °FPassing clouds.10 mph84%29.91 "Hg10 mi
7:53 AM70 °FPassing clouds.8 mph93%29.89 "Hg9 mi
6:53 AM68 °FPassing clouds.6 mph96%29.88 "Hg10 mi
5:53 AM68 °FPassing clouds.6 mph96%29.87 "Hg10 mi
4:53 AM70 °FMostly cloudy.8 mph97%29.88 "Hg10 mi
3:53 AM72 °FOvercast.No wind93%29.88 "Hg10 mi
2:53 AM71 °FPassing clouds.6 mph96%29.87 "Hg10 mi
1:53 AM71 °FMostly cloudy.5 mph96%29.87 "Hg7 mi
1:00 AM70 °FThunderstorms. Fog.No wind97%29.91 "Hg5 mi
11:53 PM
Jul 27
80 °FThundershowers. Mostly cloudy.13 mph74%29.84 "Hg10 mi
10:53 PM75 °FPassing clouds.9 mph79%29.82 "Hg10 mi
9:53 PM72 °FThundershowers. Overcast.16 mph91%29.84 "Hg10 mi
Weather by CustomWeather, © 2014

See weather overviewHow to use our weather pages